[[{"header":{"parameterUnit":"m.s-1","parameterCategory":1,"la1":30.2991,"la2":30.254,"lo1":-89.0895,"lo2":-89.0444,"dy":0.0017,"dx":0.0017,"nx":28,"ny":28,"refTime":"2023-10-29T03:00:00:Z","depth":0,"parameterNumber":2,"parameterNumberName":"U-component_of_WINDS"},"data":[0,0,0,0,0,0,0,0,0,0,0,0,0,0,0,0,0,0,0,0,0,0,0,0,0,0,0,0,0,0,0,0,0,0,0,0,0,0,0,0,0,0,0,0,0,0,0,0,0,0,0,0,0,0,0,0,0,0,0.6386,0.6386,0,0.6446,0.6446,0.6447,0.648,0.648,0.648,0.648,0.6545,0.6546,0.6548,0,0,0,0,0,0,0,0,0,0,0,0,0,0.6304,0.6305,0.6386,0.6386,0.6387,0.6446,0.6446,0.6447,0.648,0.648,0.648,0.648,0.6544,0.6546,0.6548,0,0,0,0,0,0,0,0,0,0,0,0,0,0.6349,0.6305,0.6386,0.641,0.6413,0.6445,0.6446,0.6448,0.648,0.648,0.648,0.648,0.6543,0.6546,0.6548,0.6562,0,0,0.6556,0.6557,0,0,0,0,0,0,0,0,0.6347,0.6352,0.6406,0.6409,0.6412,0.6455,0.6441,0.6486,0.648,0.6454,0.648,0.648,0.6515,0.652,0.6531,0.6565,0.6568,0.6556,0.6558,0.6559,0.6559,0,0,0,0,0,0,0,0.6343,0.635,0.641,0.6407,0.641,0.642,0.6426,0.645,0.6484,0.6457,0.6459,0.6466,0.6517,0.6528,0.6533,0.6568,0.6556,0.6558,0.656,0.6561,0.6618,0.6618,0,0,0,0,0,0,0.6336,0.6347,0.6408,0.6411,0.6379,0.6421,0.6429,0.6441,0.6483,0.649,0.6465,0.6467,0.6524,0.653,0.6535,0.6554,0.6559,0.6561,0.6562,0.6618,0.6618,0.6618,0,0,0,0,0,0,0.6334,0.6341,0.6405,0.638,0.6389,0.6423,0.6437,0.6442,0.6454,0.649,0.6497,0.6471,0.6524,0.6532,0.6555,0.6557,0.6562,0.6564,0.6618,0.6618,0.6618,0.6592,0,0,0,0,0,0,0.6331,0.634,0.6344,0.638,0.639,0.6423,0.6437,0.6443,0.6458,0.646,0.6497,0.6503,0.6525,0.6551,0.6557,0.6561,0.6566,0.6618,0.6618,0.6618,0.6593,0.6591,0.659,0,0,0,0,0,0.6328,0.6335,0.6344,0.6351,0.6396,0.6423,0.6429,0.6453,0.6458,0.6463,0.6487,0.6502,0.6556,0.6553,0.6561,0.6564,0.6618,0.6618,0.6618,0.6594,0.6592,0.659,0,0,0,0,0,0,0.6299,0.634,0.6351,0.6368,0.6392,0.6428,0.6435,0.645,0.6473,0.6474,0.6504,0.6512,0.6533,0.6552,0.6548,0.6581,0.6589,0.659,0.6568,0.6566,0.6564,0.6559,0.6568,0,0,0,0,0,0.6295,0.6312,0.6347,0.636,0.6371,0.6401,0.6413,0.643,0.6456,0.6466,0.6491,0.6517,0.654,0.6554,0.6577,0.6596,0.6605,0.6603,0.6601,0.66,0.6601,0.6613,0.6613,0.6618,0.6618,0.6618,0,0,0.6286,0.631,0.6319,0.6354,0.6374,0.6393,0.6409,0.6427,0.6442,0.6469,0.6493,0.6512,0.6543,0.6564,0.6575,0.658,0.6601,0.66,0.6598,0.66,0.6613,0.6613,0.6612,0.6618,0.6618,0.6618,0,0,0.6279,0.6299,0.6312,0.6332,0.6362,0.6382,0.6385,0.642,0.6433,0.6457,0.6478,0.6497,0.6535,0.6557,0.6572,0.6576,0.6591,0.6583,0.6574,0.6586,0.6586,0.6586,0.6588,0.6588,0.6584,0.6584,0.6583,0,0.6265,0.6292,0.6317,0.6334,0.635,0.6375,0.639,0.6408,0.6444,0.6455,0.646,0.651,0.6532,0.656,0.6561,0.6572,0.6578,0.6578,0.6584,0.6584,0.6584,0.6586,0.6587,0.6582,0.6582,0.6583,0.6583,0,0.6273,0.6292,0.6299,0.6332,0.6349,0.6365,0.6394,0.6408,0.6424,0.6444,0.6469,0.6497,0.6527,0.6535,0.6551,0.6565,0.6567,0.6578,0.6586,0.6582,0.6584,0.6585,0.658,0.6581,0.6581,0.6582,0,0,0.6248,0.6296,0.6298,0.6314,0.635,0.6366,0.6384,0.6412,0.6424,0.6449,0.6465,0.6498,0.6508,0.6526,0.6545,0.6556,0.6558,0.6566,0.6567,0.6563,0.6577,0.6568,0.6568,0.6569,0.6569,0.6569,0.6574,0,0.6246,0.6277,0.6302,0.6325,0.6343,0.6369,0.6385,0.641,0.643,0.645,0.6473,0.6495,0.6507,0.6518,0.653,0.6555,0.6561,0.6555,0.6586,0.6586,0.6576,0.657,0.6561,0.6564,0.6575,0.6575,0.6576,0,0.6247,0.627,0.6295,0.633,0.6339,0.6352,0.6381,0.6399,0.6429,0.6443,0.6464,0.6484,0.6506,0.6513,0.6545,0.654,0.6554,0.6569,0.657,0.6573,0.658,0.6573,0.6565,0.6566,0.6577,0.6577,0.6577,0,0.6226,0.6264,0.6284,0.6297,0.6338,0.6348,0.6366,0.6395,0.6411,0.6437,0.6448,0.6476,0.6491,0.6514,0.6541,0.6544,0.6571,0.658,0.6584,0.6583,0.6587,0.6587,0.6582,0.6597,0.6597,0.6597,0.6597,0,0.6221,0.6235,0.6275,0.6287,0.6305,0.6334,0.6351,0.6371,0.6397,0.6415,0.644,0.6457,0.6493,0.6514,0.6536,0.656,0.6567,0.658,0.6585,0.6577,0.6575,0.6586,0.6587,0.6597,0.6597,0.6597,0.6597,0,0.62,0.6227,0.625,0.6288,0.6298,0.6309,0.6342,0.6356,0.6379,0.6401,0.6408,0.6443,0.647,0.65,0.6537,0.6553,0.6575,0.6583,0.6564,0.6567,0.6569,0.6569,0.6571,0.6573,0.6587,0.6587,0.6587,0,0.6194,0.6205,0.6244,0.6258,0.6275,0.6296,0.6312,0.6343,0.6359,0.6395,0.6405,0.6433,0.6457,0.65,0.653,0.6559,0.6568,0.6567,0.6572,0.6564,0.6568,0.6567,0.6568,0.6565,0.6564,0.6564,0.6564,0,0.6181,0.6194,0.6216,0.6244,0.6262,0.6286,0.631,0.632,0.6356,0.6373,0.64,0.6419,0.6458,0.6486,0.6519,0.654,0.6558,0.6562,0.6565,0.6556,0.6545,0.6551,0.6559,0.6562,0.6562,0.6562,0.6562,0.6562,0.6167,0.6179,0.6209,0.6233,0.6255,0.6277,0.6292,0.6317,0.634,0.6372,0.639,0.6417,0.6449,0.6495,0.6515,0.6538,0.6544,0.6548,0.6548,0.6549,0.6547,0.6541,0.6544,0.6545,0.6545,0.6545,0.6545,0,0.6156,0.6176,0.6198,0.6232,0.6251,0.6267,0.6295,0.6311,0.6334,0.6362,0.6386,0.6418,0.6447,0.6479,0.651,0.6523,0.6532,0.653,0.6529,0.6534,0.6539,0.6534,0.6522,0.6522,0.6522,0.6522,0.6522,0.6522,0.6152,0.6173,0.619,0.6223,0.6244,0.627,0.6285,0.6307,0.633,0.6364,0.6388,0.6409,0.6439,0.6473,0.6501,0.651,0.652,0.6515,0.6527,0.6531,0.6533,0.6535,0.653,0.6517,0.6517,0.652,0.6519,0.6519]},{"header":{"parameterUnit":"m.s-1","parameterCategory":1,"la1":30.2991,"la2":30.254,"lo1":-89.0895,"lo2":-89.0444,"dy":0.0017,"dx":0.0017,"nx":28,"ny":28,"refTime":"2023-10-29T03:00:00:Z","depth":0,"parameterNumber":3,"parameterNumberName":"V-component_of_WINDS"},"data":[0,0,0,0,0,0,0,0,0,0,0,0,0,0,0,0,0,0,0,0,0,0,0,0,0,0,0,0,0,0,0,0,0,0,0,0,0,0,0,0,0,0,0,0,0,0,0,0,0,0,0,0,0,0,0,0,0,0,-5.4388,-5.4387,0,-5.4311,-5.431,-5.4309,-5.4346,-5.4348,-5.435,-5.4352,-5.4254,-5.425,-5.4245,0,0,0,0,0,0,0,0,0,0,0,0,0,-5.455,-5.4547,-5.4388,-5.4387,-5.4386,-5.4311,-5.431,-5.4309,-5.4345,-5.4348,-5.435,-5.4352,-5.4255,-5.425,-5.4245,0,0,0,0,0,0,0,0,0,0,0,0,0,-5.4476,-5.4546,-5.4388,-5.4396,-5.4396,-5.4311,-5.431,-5.4308,-5.4345,-5.4348,-5.4351,-5.4354,-5.4257,-5.4251,-5.4244,-5.4142,0,0,-5.4223,-5.4221,0,0,0,0,0,0,0,0,-5.448,-5.447,-5.4396,-5.4395,-5.4395,-5.4341,-5.4331,-5.4252,-5.4344,-5.4363,-5.4352,-5.4355,-5.4279,-5.4271,-5.4249,-5.4137,-5.4133,-5.4223,-5.4219,-5.4216,-5.4214,0,0,0,0,0,0,0,-5.4486,-5.4474,-5.4357,-5.4394,-5.4394,-5.4397,-5.439,-5.4316,-5.4305,-5.4362,-5.4365,-5.4356,-5.428,-5.4256,-5.4247,-5.4132,-5.4223,-5.4217,-5.4213,-5.421,-5.3927,-5.3923,0,0,0,0,0,0,-5.4493,-5.4478,-5.4359,-5.4355,-5.4447,-5.4392,-5.4384,-5.4355,-5.4306,-5.4302,-5.4353,-5.4358,-5.4266,-5.4255,-5.4244,-5.4117,-5.4216,-5.421,-5.4206,-5.393,-5.3926,-5.3922,0,0,0,0,0,0,-5.4496,-5.4482,-5.4363,-5.4417,-5.4402,-5.4386,-5.4353,-5.4352,-5.4328,-5.43,-5.4296,-5.4332,-5.4268,-5.4253,-5.4167,-5.4114,-5.4207,-5.4201,-5.3934,-5.3929,-5.3924,-5.3865,0,0,0,0,0,0,-5.4501,-5.4483,-5.4448,-5.4416,-5.4399,-5.4292,-5.435,-5.4348,-5.4319,-5.4324,-5.4279,-5.4274,-5.4269,-5.4177,-5.4161,-5.4107,-5.4195,-5.3939,-5.3932,-5.3926,-5.3871,-5.3858,-5.3847,0,0,0,0,0,-5.4506,-5.4432,-5.4446,-5.4432,-5.4356,-5.429,-5.4279,-5.428,-5.4315,-5.4276,-5.4257,-5.4275,-5.4124,-5.4168,-5.415,-5.4093,-5.3942,-5.3934,-5.3926,-5.3877,-5.3861,-5.3848,0,0,0,0,0,0,-5.4452,-5.4428,-5.4443,-5.4358,-5.4326,-5.4296,-5.4248,-5.4264,-5.4217,-5.4223,-5.4221,-5.421,-5.412,-5.4099,-5.4148,-5.3989,-5.4037,-5.4025,-5.4006,-5.3991,-5.3979,-5.3983,-5.419,0,0,0,0,0,-5.4431,-5.4385,-5.4364,-5.4289,-5.4274,-5.4264,-5.4234,-5.4239,-5.4203,-5.4188,-5.4163,-5.4123,-5.4066,-5.4028,-5.3974,-5.387,-5.3857,-5.3822,-5.381,-5.38,-5.3787,-5.3725,-5.3707,-5.3896,-5.3896,-5.3896,0,0,-5.4385,-5.4366,-5.4336,-5.4278,-5.4254,-5.42,-5.4252,-5.4193,-5.415,-5.4177,-5.4095,-5.4075,-5.4029,-5.3933,-5.3889,-5.3912,-5.3733,-5.379,-5.3782,-5.3775,-5.3715,-5.3697,-5.3681,-5.3891,-5.3892,-5.3892,0,0,-5.4272,-5.4256,-5.4191,-5.4167,-5.4132,-5.4126,-5.4111,-5.4079,-5.4068,-5.3987,-5.4005,-5.3952,-5.3855,-5.3821,-5.3791,-5.3665,-5.3677,-5.3648,-5.3582,-5.3521,-5.3506,-5.3493,-5.3442,-5.3424,-5.3637,-5.3637,-5.3637,0,-5.4217,-5.4142,-5.4154,-5.4094,-5.4065,-5.4094,-5.4024,-5.3998,-5.3944,-5.3921,-5.395,-5.3828,-5.38,-5.3693,-5.3663,-5.3639,-5.3615,-5.365,-5.3509,-5.3495,-5.3483,-5.3434,-5.3416,-5.3633,-5.3633,-5.3634,-5.3634,0,-5.4073,-5.4021,-5.3971,-5.3925,-5.3891,-5.3826,-5.3822,-5.3786,-5.3793,-5.3782,-5.3695,-5.3663,-5.3602,-5.3578,-5.3582,-5.347,-5.3485,-5.3511,-5.3558,-5.3461,-5.3415,-5.3397,-5.3627,-5.3629,-5.363,-5.3631,0,0,-5.392,-5.3884,-5.3864,-5.3842,-5.3807,-5.3762,-5.3697,-5.3643,-5.3608,-5.3571,-5.351,-5.3429,-5.3453,-5.3419,-5.3419,-5.3367,-5.3262,-5.3399,-5.3398,-5.3369,-5.3129,-5.3105,-5.3084,-5.3273,-5.327,-5.3267,-5.3131,0,-5.3801,-5.3692,-5.37,-5.3594,-5.3542,-5.3569,-5.351,-5.3478,-5.3466,-5.3415,-5.34,-5.334,-5.338,-5.3358,-5.3308,-5.3286,-5.3213,-5.3297,-5.3208,-5.3205,-5.3214,-5.3061,-5.3036,-5.2909,-5.3114,-5.3111,-5.3109,0,-5.3646,-5.3609,-5.3499,-5.347,-5.3448,-5.3396,-5.3345,-5.3299,-5.3261,-5.3255,-5.3218,-5.3227,-5.3153,-5.3207,-5.3101,-5.3158,-5.3122,-5.3106,-5.3101,-5.3087,-5.3147,-5.3037,-5.287,-5.2848,-5.3082,-5.3084,-5.3086,0,-5.3538,-5.346,-5.3384,-5.3365,-5.333,-5.3291,-5.3274,-5.324,-5.3206,-5.316,-5.3136,-5.3081,-5.3048,-5.3001,-5.2992,-5.3034,-5.2883,-5.2938,-5.2869,-5.2869,-5.2831,-5.2832,-5.2649,-5.2819,-5.2819,-5.282,-5.282,0,-5.3401,-5.333,-5.3335,-5.3287,-5.3207,-5.3216,-5.3135,-5.312,-5.309,-5.3034,-5.3054,-5.2999,-5.2995,-5.2937,-5.2929,-5.2838,-5.2825,-5.2812,-5.2809,-5.2807,-5.2808,-5.2779,-5.2785,-5.2814,-5.2816,-5.2817,-5.2817,0,-5.3264,-5.3265,-5.3182,-5.3158,-5.315,-5.3091,-5.3067,-5.3017,-5.3009,-5.2938,-5.2922,-5.2905,-5.2838,-5.2827,-5.2747,-5.2741,-5.2631,-5.264,-5.2645,-5.2644,-5.2574,-5.2578,-5.236,-5.2329,-5.2525,-5.2523,-5.2522,0,-5.3173,-5.3121,-5.3092,-5.3059,-5.3041,-5.2988,-5.2955,-5.296,-5.2923,-5.2876,-5.2831,-5.2768,-5.2717,-5.2607,-5.2583,-5.252,-5.2524,-5.2452,-5.2514,-5.2512,-5.2515,-5.2515,-5.2507,-5.2438,-5.2436,-5.2434,-5.2433,0,-5.3009,-5.3013,-5.2968,-5.2922,-5.2883,-5.2846,-5.281,-5.2781,-5.2781,-5.2737,-5.2673,-5.2634,-5.2554,-5.2488,-5.2426,-5.24,-5.2412,-5.2415,-5.2394,-5.2387,-5.239,-5.2381,-5.2605,-5.2418,-5.2419,-5.242,-5.2421,-5.2422,-5.2888,-5.2842,-5.2814,-5.2762,-5.2737,-5.2704,-5.2656,-5.2643,-5.2592,-5.2531,-5.2537,-5.2463,-5.2422,-5.2341,-5.2312,-5.2249,-5.2271,-5.2243,-5.2235,-5.2226,-5.2216,-5.2406,-5.2238,-5.2239,-5.2239,-5.224,-5.224,0,-5.272,-5.2705,-5.2658,-5.261,-5.2567,-5.2594,-5.2555,-5.2515,-5.2452,-5.2417,-5.2368,-5.229,-5.2226,-5.2199,-5.2134,-5.2089,-5.2092,-5.207,-5.207,-5.2062,-5.2204,-5.2225,-5.2068,-5.2068,-5.2068,-5.2068,-5.2068,-5.2068,-5.2628,-5.2549,-5.2549,-5.2455,-5.2439,-5.2372,-5.2347,-5.2314,-5.2285,-5.22,-5.215,-5.2135,-5.21,-5.2033,-5.1973,-5.1966,-5.1937,-5.1911,-5.1905,-5.2036,-5.2053,-5.207,-5.2089,-5.1907,-5.1906,-5.1769,-5.1768,-5.1767]}]]